MERIDIAN 8 (44453 NORAD) Tracking and Keplerian Element Data

This shows tracking and keplerian element data for the satellite.

Feedback or suggestion? Click here.




ElementValue
Catalog44453
NameMERIDIAN 8
Epoch Orbit403
Epoch Day47.45298188
Epoch Year2020
RAAN318.2267
Inclination62.7538
Eccentricity0.7183586
Argument of Perigee271.3625
Mean Anonmoly130.221
Mean Motion2.00613482
Decay Rate6.9E-07
L11 44453U 19046A 20047.45298188 .00000069 00000-0 00000-0 0 9993
L22 44453 62.7538 318.2267 7183586 271.3625 130.2210 2.00613482 4038

Live tracking and technical data element details for MERIDIAN 8 (NORAD 44453). MERIDIAN 8 can be tracked NOW for your location showing map with azimuth and elevation plus other details from your city location.

Track the satellite on the map from your city or location and see movement details for azimuth, elevation, latitude, longitude, range, height, and movement on the map or in text.







IsCatalogInMostPopularTable: catalog: 44453, numindb: 31
Update: records affected: 1



GetName: 44453 MERIDIAN 8

Hit Count: updated at: Thu, 20 Feb 2020 08:49:15 GMT